Stündliche Wetter Czystogarb

Heute, 28 Oktober, Mittwoch

Zeit Temperatur Niederschläge Wind Luftdruck Luftfeuchtigkeit
00:00 +9°C° 0 mm 1 m/S 713 mmHg 91%
01:00 +9°C° 0 mm 1 m/S 713 mmHg 91%
02:00 +8°C° 0 mm 1 m/S 713 mmHg 90%
03:00 +8°C° 0 mm 1 m/S 713 mmHg 90%
04:00 +8°C° 0 mm 1 m/S 713 mmHg 90%
05:00 +8°C° 0 mm 1 m/S 713 mmHg 89%
06:00 +8°C° 0 mm 1 m/S 714 mmHg 88%
07:00 +9°C° 0 mm 1 m/S 714 mmHg 87%
08:00 +10°C° 0 mm 1 m/S 714 mmHg 80%
09:00 +12°C° 0 mm 1 m/S 715 mmHg 74%
10:00 +14°C° 0 mm 1 m/S 715 mmHg 67%
11:00 +14°C° 0 mm 1 m/S 715 mmHg 66%
12:00 +15°C° 0 mm 1 m/S 714 mmHg 65%
13:00 +15°C° 0 mm 1 m/S 714 mmHg 64%
14:00 +14°C° 0 mm 1 m/S 714 mmHg 70%
15:00 +13°C° 0 mm 1 m/S 714 mmHg 76%
16:00 +12°C° 0 mm 1 m/S 714 mmHg 83%
17:00 +11°C° 0 mm 1 m/S 714 mmHg 85%
18:00 +10°C° 0 mm 1 m/S 714 mmHg 87%
19:00 +10°C° 0 mm 1 m/S 714 mmHg 90%
20:00 +9°C° 0 mm 1 m/S 714 mmHg 90%
21:00 +9°C° 0 mm 1 m/S 714 mmHg 90%
22:00 +8°C° 0 mm 0 m/S 714 mmHg 91%
23:00 +8°C° 0 mm 0 m/S 714 mmHg 91%

Morgen, 29 Oktober, Donnerstag

Zeit Temperatur Niederschläge Wind Luftdruck Luftfeuchtigkeit
00:00 +8°C° 0 mm 0 m/S 715 mmHg 92%
01:00 +7°C° 0 mm 0 m/S 715 mmHg 92%
02:00 +7°C° 0 mm 0 m/S 715 mmHg 93%
03:00 +7°C° 0 mm 0 m/S 714 mmHg 93%
04:00 +7°C° 0 mm 0 m/S 714 mmHg 93%
05:00 +7°C° 0 mm 0 m/S 715 mmHg 93%
06:00 +7°C° 0 mm 0 m/S 715 mmHg 93%
07:00 +8°C° 0 mm 0 m/S 715 mmHg 93%
08:00 +9°C° 0 mm 0 m/S 715 mmHg 87%
09:00 +11°C° 0 mm 0 m/S 715 mmHg 80%
10:00 +12°C° 0 mm 0 m/S 715 mmHg 74%
11:00 +14°C° 0 mm 1 m/S 715 mmHg 72%
12:00 +14°C° 0 mm 1 m/S 715 mmHg 70%
13:00 +14°C° 0 mm 1 m/S 715 mmHg 68%
14:00 +13°C° 0.3 mm 1 m/S 715 mmHg 74%
15:00 +12°C° 0.3 mm 1 m/S 714 mmHg 80%
16:00 +11°C° 0.3 mm 1 m/S 714 mmHg 86%
17:00 +11°C° 0.8 mm 1 m/S 714 mmHg 88%
18:00 +10°C° 0.8 mm 1 m/S 714 mmHg 90%
19:00 +10°C° 0.8 mm 1 m/S 714 mmHg 92%
20:00 +10°C° 0.6 mm 1 m/S 714 mmHg 90%
21:00 +8°C° 0.6 mm 2 m/S 715 mmHg 88%
22:00 +8°C° 0.6 mm 3 m/S 715 mmHg 86%
23:00 +7°C° 0.1 mm 3 m/S 715 mmHg 87%

übermorgen, 30 Oktober, Freitag

Zeit Temperatur Niederschläge Wind Luftdruck Luftfeuchtigkeit
00:00 +5°C° 0.1 mm 3 m/S 715 mmHg 87%
01:00 +4°C° 0.1 mm 4 m/S 715 mmHg 88%
02:00 +4°C° 0 mm 4 m/S 716 mmHg 87%
03:00 +4°C° 0 mm 4 m/S 716 mmHg 87%
04:00 +4°C° 0 mm 4 m/S 717 mmHg 87%
05:00 +4°C° 0 mm 3 m/S 717 mmHg 88%
06:00 +3°C° 0 mm 3 m/S 717 mmHg 89%
07:00 +4°C° 0 mm 2 m/S 717 mmHg 90%
08:00 +5°C° 0 mm 2 m/S 717 mmHg 86%
09:00 +6°C° 0 mm 2 m/S 718 mmHg 81%
10:00 +7°C° 0 mm 3 m/S 718 mmHg 77%
11:00 +7°C° 0 mm 2 m/S 718 mmHg 73%
12:00 +8°C° 0 mm 2 m/S 718 mmHg 69%
13:00 +9°C° 0 mm 2 m/S 718 mmHg 65%
14:00 +8°C° 0 mm 2 m/S 717 mmHg 69%
15:00 +7°C° 0 mm 2 m/S 717 mmHg 73%
16:00 +7°C° 0 mm 2 m/S 716 mmHg 77%
17:00 +5°C° 0.2 mm 3 m/S 716 mmHg 80%
18:00 +5°C° 0.2 mm 3 m/S 716 mmHg 82%
19:00 +5°C° 0.2 mm 3 m/S 716 mmHg 85%
20:00 +5°C° 1.5 mm 3 m/S 715 mmHg 88%
21:00 +5°C° 1.5 mm 3 m/S 715 mmHg 90%
22:00 +4°C° 1.5 mm 3 m/S 715 mmHg 93%
23:00 +5°C° 2.2 mm 3 m/S 714 mmHg 94%

31 Oktober, Samstag

Zeit Temperatur Niederschläge Wind Luftdruck Luftfeuchtigkeit
00:00 +6°C° 2.2 mm 2 m/S 714 mmHg 95%
01:00 +6°C° 2.2 mm 2 m/S 714 mmHg 97%
02:00 +6°C° 1 mm 2 m/S 714 mmHg 97%
03:00 +6°C° 1 mm 2 m/S 715 mmHg 97%
04:00 +5°C° 1 mm 3 m/S 715 mmHg 97%
05:00 +5°C° 0 mm 3 m/S 716 mmHg 95%
06:00 +4°C° 0 mm 3 m/S 716 mmHg 94%
07:00 +4°C° 0 mm 3 m/S 717 mmHg 93%
08:00 +4°C° 0 mm 3 m/S 717 mmHg 89%
09:00 +5°C° 0 mm 3 m/S 718 mmHg 85%
10:00 +5°C° 0 mm 3 m/S 719 mmHg 80%
11:00 +7°C° 0 mm 3 m/S 719 mmHg 78%
12:00 +7°C° 0 mm 3 m/S 719 mmHg 76%
13:00 +8°C° 0 mm 3 m/S 719 mmHg 74%
14:00 +7°C° 0 mm 3 m/S 720 mmHg 76%
15:00 +7°C° 0 mm 3 m/S 720 mmHg 79%
16:00 +5°C° 0 mm 3 m/S 720 mmHg 81%
17:00 +6°C° 0 mm 2 m/S 720 mmHg 83%
18:00 +5°C° 0 mm 2 m/S 721 mmHg 86%
19:00 +5°C° 0 mm 2 m/S 721 mmHg 88%
20:00 +4°C° 0 mm 2 m/S 721 mmHg 90%
21:00 +5°C° 0 mm 1 m/S 721 mmHg 92%
22:00 +4°C° 0 mm 1 m/S 721 mmHg 94%
23:00 +4°C° 0 mm 1 m/S 721 mmHg 94%

1 November, Sonntag

Zeit Temperatur Niederschläge Wind Luftdruck Luftfeuchtigkeit
00:00 +2°C° 0 mm 0 m/S 721 mmHg 95%
01:00 +2°C° 0 mm 0 m/S 721 mmHg 95%
02:00 +2°C° 0 mm 0 m/S 721 mmHg 95%
03:00 +2°C° 0 mm 0 m/S 721 mmHg 95%
04:00 +3°C° 0 mm 1 m/S 721 mmHg 95%
05:00 +3°C° 0 mm 1 m/S 721 mmHg 94%
06:00 +3°C° 0 mm 1 m/S 721 mmHg 93%
07:00 +3°C° 0 mm 1 m/S 721 mmHg 93%
08:00 +5°C° 0 mm 1 m/S 721 mmHg 85%
09:00 +7°C° 0 mm 1 m/S 721 mmHg 77%
10:00 +9°C° 0 mm 1 m/S 722 mmHg 69%
11:00 +10°C° 0 mm 1 m/S 721 mmHg 66%
12:00 +11°C° 0 mm 1 m/S 721 mmHg 62%
13:00 +11°C° 0 mm 1 m/S 721 mmHg 59%
14:00 +10°C° 0 mm 1 m/S 721 mmHg 66%
15:00 +9°C° 0 mm 1 m/S 720 mmHg 72%
16:00 +7°C° 0 mm 1 m/S 720 mmHg 79%
17:00 +6°C° 0 mm 1 m/S 720 mmHg 81%
18:00 +6°C° 0 mm 1 m/S 720 mmHg 84%
19:00 +5°C° 0 mm 1 m/S 720 mmHg 86%
20:00 +5°C° 0 mm 1 m/S 720 mmHg 87%
21:00 +4°C° 0 mm 2 m/S 720 mmHg 87%
22:00 +3°C° 0 mm 2 m/S 720 mmHg 87%
23:00 +3°C° 0 mm 2 m/S 720 mmHg 87%

2 November, Montag

Zeit Temperatur Niederschläge Wind Luftdruck Luftfeuchtigkeit
00:00 +3°C° 0 mm 2 m/S 720 mmHg 88%
01:00 +3°C° 0 mm 2 m/S 720 mmHg 88%
02:00 +3°C° 0 mm 2 m/S 720 mmHg 89%
03:00 +3°C° 0 mm 2 m/S 720 mmHg 89%
04:00 +2°C° 0 mm 2 m/S 720 mmHg 89%
05:00 +2°C° 0 mm 2 m/S 720 mmHg 89%
06:00 +2°C° 0 mm 2 m/S 720 mmHg 89%
07:00 +2°C° 0 mm 2 m/S 720 mmHg 89%
08:00 +4°C° 0 mm 2 m/S 720 mmHg 83%
09:00 +5°C° 0 mm 3 m/S 720 mmHg 77%
10:00 +8°C° 0 mm 3 m/S 720 mmHg 71%
11:00 +8°C° 0 mm 3 m/S 720 mmHg 69%
12:00 +9°C° 0 mm 3 m/S 720 mmHg 68%
13:00 +10°C° 0 mm 3 m/S 720 mmHg 66%
14:00 +8°C° 0 mm 3 m/S 720 mmHg 72%
15:00 +7°C° 0 mm 2 m/S 720 mmHg 77%
16:00 +6°C° 0 mm 2 m/S 720 mmHg 83%
17:00 +6°C° 0 mm 2 m/S 720 mmHg 84%
18:00 +5°C° 0 mm 2 m/S 720 mmHg 86%
19:00 +4°C° 0 mm 2 m/S 720 mmHg 87%
20:00 +4°C° 0 mm 2 m/S 720 mmHg 87%
21:00 +4°C° 0 mm 2 m/S 720 mmHg 87%
22:00 +4°C° 0 mm 2 m/S 720 mmHg 86%
23:00 +4°C° 0 mm 2 m/S 720 mmHg 86%
Mehr zeigen

Wir brauchen deine Erlaubnis

Meteoprog und unser Service Anbieter werden persönliche Daten aufbewahren, so wie Cookies, Geräte Bezeichnung oder ähnliche Technologien von deinem Gerät und Prozess, so wie Persönliche Daten Inhalte und Werbungen, genauso wie social Media und den Verkehr zu analysieren.

  • Aufbewahrung und/oder Zugang zu deiner Geräte Informationen.

    Cookies, Geräte Bezeichnung oder andere Informationen, können aufbewahrt oder Zugang zu deinem Gerät erhalten, für den Grund, der oben angegeben wird.

  • Personalisierte Werbung und Inhalte, Messungen, Einblick in das Publikum und Produkt Entwicklung.

    Werbungen und Inhalte können personalisiert werden, basierend auf ein Profil. Mehr Daten können besser personalisierte Werbungen und Inhalte hinzufügen. Werbung und Inhalte können gezeigt und gemessen werden. Einblicke über das Publikum, welche die Werbung gesehen haben und den Inhalt, können abgeleitet werden. So wie Daten können genutzt werden, um es zu verbessern oder die Benutzer Erfahrung zu verbessern das System und die Software.

Wenn du “Ich stimme zu” klickst, erlaubst du uns, die Cookies zu benutzen die Geräte Bezeichnung, den Web oder ähnliche Technologien zu benutzen. Deine Settings, können in deinem Gerät bei deinem Browser geändert werden.

Für den bestimmten Zweck, berechtigten Interessen beruhen darauf, mehr als auf den Inhalt. Du kannst mehr darüber in unseren Privaten und Cookie Politik lesen.